Wetterdaten: aktuell Mittwoch, 23.08.2017 11:55
Datum Zeit Temp. A. Temp. A. min Feuchte A. Luftdruck Regen Wind Richtung Richtung Sonnenschein Solar Taupunkt Windchill Windben
23.08.2017 11:55 25,9 C 25,7 C 47 % 1015,8 hPa 0,0 l/m 4,1 km/h (1 Bft) O 101 0 min 0 W/m 13,7 C 25,9 C 14,5 km/h (3 Bft)
23.08.2017 11:50 25,7 C 25,0 C 47 % 1015,7 hPa 0,0 l/m 4,6 km/h (1 Bft) S-SO 151 0 min 0 W/m 13,5 C 25,7 C 16,1 km/h (3 Bft)
23.08.2017 11:45 25,0 C 24,6 C 51 % 1015,8 hPa 0,0 l/m 4,6 km/h (1 Bft) SO 142 0 min 0 W/m 14,1 C 25,0 C 11,3 km/h (2 Bft)
23.08.2017 11:40 24,7 C 24,7 C 49 % 1015,9 hPa 0,0 l/m 4,4 km/h (1 Bft) S-SO 157 0 min 0 W/m 13,3 C 24,7 C 9,7 km/h (2 Bft)
23.08.2017 11:35 24,9 C 24,5 C 50 % 1015,8 hPa 0,0 l/m 5,6 km/h (1 Bft) S-SW 194 0 min 0 W/m 13,7 C 24,9 C 11,3 km/h (2 Bft)
23.08.2017 11:30 24,5 C 24,3 C 51 % 1015,8 hPa 0,0 l/m 4,7 km/h (1 Bft) O-NO 71 0 min 0 W/m 13,7 C 24,5 C 11,3 km/h (2 Bft)
23.08.2017 11:25 24,3 C 23,9 C 51 % 1015,8 hPa 0,0 l/m 5,3 km/h (1 Bft) O-NO 67 0 min 0 W/m 13,5 C 24,3 C 12,9 km/h (3 Bft)
23.08.2017 11:20 23,9 C 23,8 C 55 % 1015,9 hPa 0,0 l/m 3,0 km/h (1 Bft) S-SO 156 0 min 0 W/m 14,3 C 23,9 C 9,7 km/h (2 Bft)
23.08.2017 11:15 23,8 C 23,8 C 54 % 1015,9 hPa 0,0 l/m 3,4 km/h (1 Bft) O-SO 103 0 min 0 W/m 13,9 C 23,8 C 8,0 km/h (2 Bft)
23.08.2017 11:10 23,8 C 23,7 C 54 % 1016,0 hPa 0,0 l/m 3,9 km/h (1 Bft) SO 132 0 min 0 W/m 13,9 C 23,8 C 11,3 km/h (2 Bft)
23.08.2017 11:05 23,7 C 23,6 C 54 % 1015,9 hPa 0,0 l/m 3,6 km/h (1 Bft) NO 52 0 min 0 W/m 13,8 C 23,7 C 11,3 km/h (2 Bft)
23.08.2017 11:00 23,7 C 23,7 C 54 % 1016,0 hPa 0,0 l/m 4,0 km/h (1 Bft) O 84 0 min 0 W/m 13,8 C 23,7 C 9,7 km/h (2 Bft)
23.08.2017 10:55 23,7 C 23,7 C 54 % 1016,0 hPa 0,0 l/m 4,2 km/h (1 Bft) SO 144 0 min 0 W/m 13,8 C 23,7 C 11,3 km/h (2 Bft)
23.08.2017 10:50 23,7 C 23,7 C 53 % 1016,0 hPa 0,0 l/m 3,1 km/h (1 Bft) O 92 0 min 0 W/m 13,5 C 23,7 C 9,7 km/h (2 Bft)
23.08.2017 10:45 23,8 C 23,6 C 53 % 1016,1 hPa 0,0 l/m 2,3 km/h (1 Bft) S 171 0 min 0 W/m 13,6 C 23,8 C 6,4 km/h (2 Bft)
23.08.2017 10:40 23,6 C 23,3 C 54 % 1016,2 hPa 0,0 l/m 2,5 km/h (1 Bft) SO 133 0 min 0 W/m 13,7 C 23,6 C 8,0 km/h (2 Bft)
23.08.2017 10:35 23,3 C 23,0 C 54 % 1016,2 hPa 0,0 l/m 2,5 km/h (1 Bft) O-NO 59 0 min 0 W/m 13,5 C 23,3 C 6,4 km/h (2 Bft)
23.08.2017 10:30 23,0 C 22,6 C 55 % 1016,1 hPa 0,0 l/m 2,4 km/h (1 Bft) O-SO 119 0 min 0 W/m 13,5 C 23,0 C 6,4 km/h (2 Bft)
23.08.2017 10:25 22,6 C 22,3 C 56 % 1016,2 hPa 0,0 l/m 1,2 km/h (1 Bft) O-SO 115 0 min 0 W/m 13,4 C 22,6 C 3,2 km/h (1 Bft)
23.08.2017 10:20 22,3 C 22,2 C 56 % 1016,2 hPa 0,0 l/m 2,3 km/h (1 Bft) SO 134 0 min 0 W/m 13,1 C 22,3 C 6,4 km/h (2 Bft)
23.08.2017 10:15 22,2 C 22,2 C 56 % 1016,2 hPa 0,0 l/m 3,2 km/h (1 Bft) S 171 0 min 0 W/m 13,0 C 22,2 C 9,7 km/h (2 Bft)
23.08.2017 10:10 22,2 C 22,2 C 56 % 1016,2 hPa 0,0 l/m 2,4 km/h (1 Bft) SO 134 0 min 0 W/m 13,0 C 22,2 C 6,4 km/h (2 Bft)
23.08.2017 10:05 22,3 C 22,1 C 58 % 1016,1 hPa 0,0 l/m 3,3 km/h (1 Bft) S-SW 192 0 min 0 W/m 13,6 C 22,3 C 6,4 km/h (2 Bft)
23.08.2017 10:00 22,1 C 21,7 C 58 % 1016,2 hPa 0,0 l/m 2,2 km/h (1 Bft) S 189 0 min 0 W/m 13,4 C 22,1 C 8,0 km/h (2 Bft)
23.08.2017 09:55 21,7 C 21,2 C 61 % 1016,2 hPa 0,0 l/m 0,4 km/h (0 Bft) S-SO 159 0 min 0 W/m 13,8 C 21,7 C 3,2 km/h (1 Bft)
23.08.2017 09:50 21,2 C 21,0 C 62 % 1016,2 hPa 0,0 l/m 0,7 km/h (0 Bft) S-SO 159 0 min 0 W/m 13,6 C 21,2 C 3,2 km/h (1 Bft)
23.08.2017 09:45 21,1 C 20,7 C 62 % 1016,1 hPa 0,0 l/m 0,9 km/h (0 Bft) S-SO 159 0 min 0 W/m 13,5 C 21,1 C 3,2 km/h (1 Bft)
23.08.2017 09:40 20,7 C 20,1 C 63 % 1016,2 hPa 0,0 l/m 0,7 km/h (0 Bft) S-SO 159 0 min 0 W/m 13,4 C 20,7 C 3,2 km/h (1 Bft)
23.08.2017 09:35 20,1 C 19,7 C 66 % 1016,1 hPa 0,0 l/m 1,1 km/h (1 Bft) S-SO 159 0 min 0 W/m 13,5 C 20,1 C 6,4 km/h (2 Bft)
23.08.2017 09:30 19,8 C 19,4 C 65 % 1016,1 hPa 0,0 l/m 0,5 km/h (0 Bft) S-SO 159 0 min 0 W/m 13,0 C 19,8 C 3,2 km/h (1 Bft)
23.08.2017 09:25 19,5 C 19,5 C 65 % 1016,0 hPa 0,0 l/m 1,0 km/h (0 Bft) S-SO 159 0 min 0 W/m 12,7 C 19,5 C 3,2 km/h (1 Bft)
23.08.2017 09:20 19,7 C 19,6 C 69 % 1016,1 hPa 0,0 l/m 0,7 km/h (0 Bft) S-SO 159 0 min 0 W/m 13,8 C 19,7 C 3,2 km/h (1 Bft)
23.08.2017 09:15 19,6 C 19,3 C 68 % 1016,1 hPa 0,0 l/m 1,3 km/h (1 Bft) S-SO 159 0 min 0 W/m 13,5 C 19,6 C 3,2 km/h (1 Bft)
23.08.2017 09:10 19,3 C 18,6 C 70 % 1016,2 hPa 0,0 l/m 2,5 km/h (1 Bft) S-SO 159 0 min 0 W/m 13,7 C 19,3 C 6,4 km/h (2 Bft)
23.08.2017 09:05 18,6 C 17,9 C 72 % 1016,2 hPa 0,0 l/m 1,1 km/h (1 Bft) S-SW 192 0 min 0 W/m 13,4 C 18,6 C 3,2 km/h (1 Bft)
23.08.2017 09:00 17,9 C 17,2 C 76 % 1016,2 hPa 0,0 l/m 0,9 km/h (0 Bft) S-SW 193 0 min 0 W/m 13,6 C 17,9 C 3,2 km/h (1 Bft)
23.08.2017 08:55 17,2 C 16,2 C 79 % 1016,2 hPa 0,0 l/m 1,8 km/h (1 Bft) S-SW 193 0 min 0 W/m 13,5 C 17,2 C 4,8 km/h (1 Bft)
23.08.2017 08:50 16,2 C 16,0 C 82 % 1016,2 hPa 0,0 l/m 2,6 km/h (1 Bft) S-SW 193 0 min 0 W/m 13,1 C 16,2 C 6,4 km/h (2 Bft)
23.08.2017 08:45 16,0 C 15,9 C 82 % 1016,2 hPa 0,0 l/m 3,1 km/h (1 Bft) S-SW 198 0 min 0 W/m 12,9 C 16,0 C 4,8 km/h (1 Bft)
23.08.2017 08:40 15,9 C 15,9 C 81 % 1016,1 hPa 0,0 l/m 1,1 km/h (1 Bft) S-SW 200 0 min 0 W/m 12,6 C 15,9 C 3,2 km/h (1 Bft)
23.08.2017 08:35 15,9 C 15,8 C 81 % 1016,1 hPa 0,0 l/m 0,8 km/h (0 Bft) S-SW 200 0 min 0 W/m 12,6 C 15,9 C 3,2 km/h (1 Bft)
23.08.2017 08:30 15,8 C 15,7 C 82 % 1016,1 hPa 0,0 l/m 1,2 km/h (1 Bft) S-SW 200 0 min 0 W/m 12,7 C 15,8 C 4,8 km/h (1 Bft)
23.08.2017 08:25 15,8 C 15,6 C 82 % 1016,2 hPa 0,0 l/m 1,1 km/h (1 Bft) S-SW 200 0 min 0 W/m 12,7 C 15,8 C 4,8 km/h (1 Bft)
23.08.2017 08:20 15,6 C 15,5 C 82 % 1016,2 hPa 0,0 l/m 1,2 km/h (1 Bft) S-SW 200 0 min 0 W/m 12,5 C 15,6 C 3,2 km/h (1 Bft)
23.08.2017 08:15 15,5 C 15,3 C 82 % 1016,0 hPa 0,0 l/m 1,6 km/h (1 Bft) S-SW 200 0 min 0 W/m 12,4 C 15,5 C 3,2 km/h (1 Bft)
23.08.2017 08:10 15,3 C 15,2 C 83 % 1016,1 hPa 0,0 l/m 1,0 km/h (0 Bft) S-SW 200 0 min 0 W/m 12,4 C 15,3 C 3,2 km/h (1 Bft)
23.08.2017 08:05 15,2 C 15,1 C 83 % 1016,1 hPa 0,0 l/m 0,8 km/h (0 Bft) S-SW 200 0 min 0 W/m 12,3 C 15,2 C 3,2 km/h (1 Bft)
23.08.2017 08:00 15,1 C 14,9 C 84 % 1016,0 hPa 0,0 l/m 0,5 km/h (0 Bft) S-SW 200 0 min 0 W/m 12,4 C 15,1 C 3,2 km/h (1 Bft)
23.08.2017 07:55 14,9 C 14,8 C 84 % 1016,0 hPa 0,0 l/m 0,4 km/h (0 Bft) S-SW 200 0 min 0 W/m 12,2 C 14,9 C 1,6 km/h (1 Bft)
23.08.2017 07:50 14,8 C 14,7 C 84 % 1016,0 hPa 0,0 l/m 0,5 km/h (0 Bft) S-SW 200 0 min 0 W/m 12,1 C 14,8 C 3,2 km/h (1 Bft)
23.08.2017 07:45 14,7 C 14,7 C 84 % 1016,0 hPa 0,0 l/m 0,9 km/h (0 Bft) S-SW 200 0 min 0 W/m 12,0 C 14,7 C 3,2 km/h (1 Bft)
23.08.2017 07:40 14,7 C 14,6 C 84 % 1016,1 hPa 0,0 l/m 0,6 km/h (0 Bft) S-SW 200 0 min 0 W/m 12,0 C 14,7 C 3,2 km/h (1 Bft)
23.08.2017 07:35 14,6 C 14,5 C 85 % 1016,2 hPa 0,0 l/m 2,4 km/h (1 Bft) S-SW 200 0 min 0 W/m 12,1 C 14,6 C 4,8 km/h (1 Bft)
23.08.2017 07:30 14,5 C 14,4 C 85 % 1016,3 hPa 0,0 l/m 3,2 km/h (1 Bft) S-SW 205 0 min 0 W/m 12,0 C 14,5 C 4,8 km/h (1 Bft)
23.08.2017 07:25 14,4 C 14,4 C 85 % 1016,2 hPa 0,0 l/m 2,3 km/h (1 Bft) SW 221 0 min 0 W/m 11,9 C 14,4 C 4,8 km/h (1 Bft)
23.08.2017 07:20 14,4 C 14,3 C 85 % 1016,2 hPa 0,0 l/m 1,7 km/h (1 Bft) SW 221 0 min 0 W/m 11,9 C 14,4 C 4,8 km/h (1 Bft)
23.08.2017 07:15 14,3 C 14,3 C 84 % 1016,2 hPa 0,0 l/m 0,2 km/h (0 Bft) SW 227 0 min 0 W/m 11,6 C 14,3 C 3,2 km/h (1 Bft)
23.08.2017 07:10 14,3 C 14,3 C 84 % 1016,2 hPa 0,0 l/m 0,0 km/h (0 Bft) SW 227 0 min 0 W/m 11,6 C 14,3 C 1,6 km/h (1 Bft)
23.08.2017 07:05 14,3 C 14,3 C 84 % 1016,1 hPa 0,0 l/m 0,0 km/h (0 Bft) SW 227 0 min 0 W/m 11,6 C 14,3 C 0,0 km/h (0 Bft)
23.08.2017 07:00 14,4 C 14,4 C 84 % 1016,1 hPa 0,0 l/m 0,0 km/h (0 Bft) SW 227 0 min 0 W/m 11,7 C 14,4 C 0,0 km/h (0 Bft)
23.08.2017 06:55 14,4 C 14,4 C 84 % 1016,1 hPa 0,0 l/m 0,0 km/h (0 Bft) SW 227 0 min 0 W/m 11,7 C 14,4 C 0,0 km/h (0 Bft)
23.08.2017 06:50 14,4 C 14,4 C 83 % 1016,1 hPa 0,0 l/m 0,3 km/h (0 Bft) SW 227 0 min 0 W/m 11,5 C 14,4 C 1,6 km/h (1 Bft)
23.08.2017 06:45 14,4 C 14,4 C 83 % 1016,1 hPa 0,0 l/m 0,3 km/h (0 Bft) SW 227 0 min 0 W/m 11,5 C 14,4 C 1,6 km/h (1 Bft)
23.08.2017 06:40 14,5 C 14,5 C 83 % 1016,1 hPa 0,0 l/m 0,6 km/h (0 Bft) SW 227 0 min 0 W/m 11,6 C 14,5 C 3,2 km/h (1 Bft)
23.08.2017 06:35 14,5 C 14,5 C 83 % 1016,1 hPa 0,0 l/m 0,5 km/h (0 Bft) SW 227 0 min 0 W/m 11,6 C 14,5 C 3,2 km/h (1 Bft)
23.08.2017 06:30 14,5 C 14,5 C 83 % 1016,1 hPa 0,0 l/m 0,0 km/h (0 Bft) SW 227 0 min 0 W/m 11,6 C 14,5 C 0,0 km/h (0 Bft)
23.08.2017 06:25 14,6 C 14,6 C 83 % 1016,2 hPa 0,0 l/m 0,5 km/h (0 Bft) SW 227 0 min 0 W/m 11,7 C 14,6 C 1,6 km/h (1 Bft)
23.08.2017 06:20 14,6 C 14,6 C 83 % 1016,2 hPa 0,0 l/m 0,9 km/h (0 Bft) SW 227 0 min 0 W/m 11,7 C 14,6 C 3,2 km/h (1 Bft)
23.08.2017 06:15 14,6 C 14,6 C 82 % 1016,1 hPa 0,0 l/m 1,6 km/h (1 Bft) SW 227 0 min 0 W/m 11,6 C 14,6 C 4,8 km/h (1 Bft)
23.08.2017 06:10 14,7 C 14,7 C 82 % 1016,2 hPa 0,0 l/m 0,0 km/h (0 Bft) NW 304 0 min 0 W/m 11,7 C 14,7 C 0,0 km/h (0 Bft)
23.08.2017 06:05 14,7 C 14,7 C 82 % 1016,2 hPa 0,0 l/m 0,3 km/h (0 Bft) NW 304 0 min 0 W/m 11,7 C 14,7 C 1,6 km/h (1 Bft)
23.08.2017 06:00 14,7 C 14,7 C 81 % 1016,1 hPa 0,0 l/m 0,0 km/h (0 Bft) NW 304 0 min 0 W/m 11,5 C 14,7 C 0,0 km/h (0 Bft)
23.08.2017 05:55 14,7 C 14,7 C 81 % 1016,0 hPa 0,0 l/m 0,0 km/h (0 Bft) NW 304 0 min 0 W/m 11,5 C 14,7 C 0,0 km/h (0 Bft)
23.08.2017 05:50 14,8 C 14,8 C 81 % 1016,0 hPa 0,0 l/m 0,0 km/h (0 Bft) NW 304 0 min 0 W/m 11,6 C 14,8 C 1,6 km/h (1 Bft)
23.08.2017 05:45 14,8 C 14,8 C 81 % 1016,1 hPa 0,0 l/m 0,0 km/h (0 Bft) NW 304 0 min 0 W/m 11,6 C 14,8 C 1,6 km/h (1 Bft)
23.08.2017 05:40 14,8 C 14,8 C 81 % 1016,1 hPa 0,0 l/m 0,2 km/h (0 Bft) NW 304 0 min 0 W/m 11,6 C 14,8 C 1,6 km/h (1 Bft)
23.08.2017 05:35 14,9 C 14,9 C 80 % 1016,1 hPa 0,0 l/m 0,0 km/h (0 Bft) NW 304 0 min 0 W/m 11,5 C 14,9 C 0,0 km/h (0 Bft)
23.08.2017 05:30 15,0 C 15,0 C 80 % 1016,2 hPa 0,0 l/m 0,0 km/h (0 Bft) NW 304 0 min 0 W/m 11,6 C 15,0 C 0,0 km/h (0 Bft)
23.08.2017 05:25 15,1 C 15,1 C 79 % 1016,2 hPa 0,0 l/m 0,0 km/h (0 Bft) NW 304 0 min 0 W/m 11,5 C 15,1 C 1,6 km/h (1 Bft)
23.08.2017 05:20 15,1 C 15,1 C 79 % 1016,1 hPa 0,0 l/m 0,2 km/h (0 Bft) NW 304 0 min 0 W/m 11,5 C 15,1 C 3,2 km/h (1 Bft)
23.08.2017 05:15 15,2 C 15,2 C 79 % 1016,0 hPa 0,0 l/m 0,3 km/h (0 Bft) NW 304 0 min 0 W/m 11,6 C 15,2 C 3,2 km/h (1 Bft)
23.08.2017 05:10 15,3 C 15,3 C 78 % 1015,9 hPa 0,0 l/m 1,1 km/h (1 Bft) NW 304 0 min 0 W/m 11,5 C 15,3 C 3,2 km/h (1 Bft)
23.08.2017 05:05 15,4 C 15,4 C 77 % 1015,9 hPa 0,0 l/m 0,0 km/h (0 Bft) NW 304 0 min 0 W/m 11,4 C 15,4 C 0,0 km/h (0 Bft)
23.08.2017 05:00 15,6 C 15,6 C 77 % 1015,9 hPa 0,0 l/m 0,4 km/h (0 Bft) NW 304 0 min 0 W/m 11,6 C 15,6 C 1,6 km/h (1 Bft)
23.08.2017 04:55 15,7 C 15,7 C 76 % 1015,9 hPa 0,0 l/m 0,1 km/h (0 Bft) NW 304 0 min 0 W/m 11,5 C 15,7 C 1,6 km/h (1 Bft)
23.08.2017 04:50 15,8 C 15,8 C 75 % 1015,9 hPa 0,0 l/m 0,0 km/h (0 Bft) NW 304 0 min 0 W/m 11,4 C 15,8 C 0,0 km/h (0 Bft)
23.08.2017 04:45 16,0 C 16,0 C 74 % 1016,0 hPa 0,0 l/m 0,0 km/h (0 Bft) NW 304 0 min 0 W/m 11,4 C 16,0 C 0,0 km/h (0 Bft)
23.08.2017 04:40 16,1 C 16,1 C 74 % 1016,1 hPa 0,0 l/m 0,0 km/h (0 Bft) NW 304 0 min 0 W/m 11,5 C 16,1 C 0,0 km/h (0 Bft)
23.08.2017 04:35 16,3 C 16,3 C 73 % 1016,1 hPa 0,0 l/m 0,3 km/h (0 Bft) NW 304 0 min 0 W/m 11,4 C 16,3 C 3,2 km/h (1 Bft)
23.08.2017 04:30 16,4 C 16,4 C 72 % 1016,2 hPa 0,0 l/m 0,2 km/h (0 Bft) NW 304 0 min 0 W/m 11,3 C 16,4 C 1,6 km/h (1 Bft)
23.08.2017 04:25 16,6 C 16,6 C 71 % 1016,3 hPa 0,0 l/m 0,7 km/h (0 Bft) NW 304 0 min 0 W/m 11,3 C 16,6 C 3,2 km/h (1 Bft)
23.08.2017 04:20 16,7 C 16,7 C 70 % 1016,3 hPa 0,0 l/m 1,3 km/h (1 Bft) NW 304 0 min 0 W/m 11,2 C 16,7 C 4,8 km/h (1 Bft)
23.08.2017 04:15 16,7 C 16,7 C 69 % 1016,4 hPa 0,0 l/m 2,1 km/h (1 Bft) NW 304 0 min 0 W/m 11,0 C 16,7 C 4,8 km/h (1 Bft)
23.08.2017 04:10 16,7 C 16,7 C 69 % 1016,5 hPa 0,0 l/m 2,3 km/h (1 Bft) NW 304 0 min 0 W/m 11,0 C 16,7 C 4,8 km/h (1 Bft)
23.08.2017 04:05 16,7 C 16,7 C 69 % 1016,5 hPa 0,0 l/m 3,4 km/h (1 Bft) W-NW 298 0 min 0 W/m 11,0 C 16,7 C 4,8 km/h (1 Bft)
23.08.2017 04:00 16,7 C 16,6 C 69 % 1016,4 hPa 0,0 l/m 3,5 km/h (1 Bft) NW 317 0 min 0 W/m 11,0 C 16,7 C 6,4 km/h (2 Bft)
23.08.2017 03:55 16,6 C 16,6 C 69 % 1016,4 hPa 0,0 l/m 2,5 km/h (1 Bft) N-NW 329 0 min 0 W/m 10,9 C 16,6 C 6,4 km/h (2 Bft)
23.08.2017 03:50 16,6 C 16,4 C 69 % 1016,4 hPa 0,0 l/m 4,5 km/h (1 Bft) NW 326 0 min 0 W/m 10,9 C 16,6 C 6,4 km/h (2 Bft)
23.08.2017 03:45 16,4 C 16,2 C 69 % 1016,4 hPa 0,0 l/m 4,8 km/h (1 Bft) N-NW 337 0 min 0 W/m 10,7 C 16,4 C 6,4 km/h (2 Bft)
23.08.2017 03:40 16,3 C 16,2 C 72 % 1016,5 hPa 0,0 l/m 2,7 km/h (1 Bft) NW 321 0 min 0 W/m 11,2 C 16,3 C 6,4 km/h (2 Bft)
23.08.2017 03:35 16,2 C 16,1 C 71 % 1016,5 hPa 0,0 l/m 3,9 km/h (1 Bft) W 280 0 min 0 W/m 10,9 C 16,2 C 8,0 km/h (2 Bft)
23.08.2017 03:30 16,1 C 16,0 C 71 % 1016,5 hPa 0,0 l/m 2,5 km/h (1 Bft) W-NW 291 0 min 0 W/m 10,8 C 16,1 C 4,8 km/h (1 Bft)
23.08.2017 03:25 16,0 C 16,0 C 71 % 1016,5 hPa 0,0 l/m 1,0 km/h (0 Bft) NW 311 0 min 0 W/m 10,7 C 16,0 C 4,8 km/h (1 Bft)
23.08.2017 03:20 16,0 C 16,0 C 71 % 1016,4 hPa 0,0 l/m 2,2 km/h (1 Bft) NW 313 0 min 0 W/m 10,7 C 16,0 C 4,8 km/h (1 Bft)
23.08.2017 03:15 16,1 C 16,1 C 71 % 1016,5 hPa 0,0 l/m 1,4 km/h (1 Bft) W-NW 294 0 min 0 W/m 10,8 C 16,1 C 4,8 km/h (1 Bft)
23.08.2017 03:10 16,2 C 16,2 C 71 % 1016,5 hPa 0,0 l/m 1,0 km/h (0 Bft) W-NW 290 0 min 0 W/m 10,9 C 16,2 C 4,8 km/h (1 Bft)
23.08.2017 03:05 16,4 C 16,4 C 71 % 1016,5 hPa 0,0 l/m 0,0 km/h (0 Bft) W-NW 283 0 min 0 W/m 11,1 C 16,4 C 1,6 km/h (1 Bft)
23.08.2017 03:00 16,4 C 16,4 C 70 % 1016,6 hPa 0,0 l/m 0,9 km/h (0 Bft) W-NW 283 0 min 0 W/m 10,9 C 16,4 C 3,2 km/h (1 Bft)
23.08.2017 02:55 16,6 C 16,6 C 70 % 1016,6 hPa 0,0 l/m 0,3 km/h (0 Bft) W-NW 283 0 min 0 W/m 11,1 C 16,6 C 3,2 km/h (1 Bft)
23.08.2017 02:50 16,7 C 16,7 C 69 % 1016,6 hPa 0,0 l/m 0,3 km/h (0 Bft) W-NW 283 0 min 0 W/m 11,0 C 16,7 C 3,2 km/h (1 Bft)
23.08.2017 02:45 16,7 C 16,6 C 68 % 1016,7 hPa 0,0 l/m 1,8 km/h (1 Bft) W-NW 283 0 min 0 W/m 10,8 C 16,7 C 4,8 km/h (1 Bft)
23.08.2017 02:40 16,7 C 16,7 C 68 % 1016,7 hPa 0,0 l/m 3,3 km/h (1 Bft) W-NW 293 0 min 0 W/m 10,8 C 16,7 C 8,0 km/h (2 Bft)
23.08.2017 02:35 16,7 C 16,7 C 68 % 1016,7 hPa 0,0 l/m 1,4 km/h (1 Bft) W-NW 288 0 min 0 W/m 10,8 C 16,7 C 4,8 km/h (1 Bft)
23.08.2017 02:30 16,8 C 16,8 C 68 % 1016,7 hPa 0,0 l/m 3,4 km/h (1 Bft) W-NW 285 0 min 0 W/m 10,9 C 16,8 C 9,7 km/h (2 Bft)
23.08.2017 02:25 16,9 C 16,9 C 68 % 1016,6 hPa 0,0 l/m 2,5 km/h (1 Bft) W-NW 283 0 min 0 W/m 11,0 C 16,9 C 4,8 km/h (1 Bft)
23.08.2017 02:20 16,9 C 16,9 C 68 % 1016,7 hPa 0,0 l/m 1,9 km/h (1 Bft) W-NW 292 0 min 0 W/m 11,0 C 16,9 C 4,8 km/h (1 Bft)
23.08.2017 02:15 17,0 C 17,0 C 67 % 1016,6 hPa 0,0 l/m 2,5 km/h (1 Bft) W-NW 300 0 min 0 W/m 10,8 C 17,0 C 4,8 km/h (1 Bft)
23.08.2017 02:10 17,1 C 17,1 C 67 % 1016,7 hPa 0,0 l/m 2,4 km/h (1 Bft) W-NW 296 0 min 0 W/m 10,9 C 17,1 C 6,4 km/h (2 Bft)
23.08.2017 02:05 17,1 C 17,1 C 67 % 1016,7 hPa 0,0 l/m 2,8 km/h (1 Bft) W-NW 301 0 min 0 W/m 10,9 C 17,1 C 4,8 km/h (1 Bft)
23.08.2017 02:00 17,1 C 17,1 C 67 % 1016,7 hPa 0,0 l/m 2,3 km/h (1 Bft) NW 319 0 min 0 W/m 10,9 C 17,1 C 4,8 km/h (1 Bft)
23.08.2017 01:55 17,1 C 17,1 C 67 % 1016,7 hPa 0,0 l/m 1,5 km/h (1 Bft) NW 307 0 min 0 W/m 10,9 C 17,1 C 6,4 km/h (2 Bft)
23.08.2017 01:50 17,2 C 17,2 C 67 % 1016,7 hPa 0,0 l/m 2,0 km/h (1 Bft) NW 315 0 min 0 W/m 11,0 C 17,2 C 3,2 km/h (1 Bft)
23.08.2017 01:45 17,2 C 17,2 C 67 % 1016,7 hPa 0,0 l/m 1,5 km/h (1 Bft) NW 315 0 min 0 W/m 11,0 C 17,2 C 4,8 km/h (1 Bft)
23.08.2017 01:40 17,2 C 17,2 C 67 % 1016,8 hPa 0,0 l/m 2,0 km/h (1 Bft) NW 313 0 min 0 W/m 11,0 C 17,2 C 6,4 km/h (2 Bft)
23.08.2017 01:35 17,3 C 17,3 C 67 % 1016,8 hPa 0,0 l/m 1,0 km/h (0 Bft) W-NW 303 0 min 0 W/m 11,1 C 17,3 C 3,2 km/h (1 Bft)
23.08.2017 01:30 17,4 C 17,4 C 66 % 1016,8 hPa 0,0 l/m 2,4 km/h (1 Bft) W-NW 303 0 min 0 W/m 11,0 C 17,4 C 4,8 km/h (1 Bft)
23.08.2017 01:25 17,4 C 17,4 C 66 % 1016,9 hPa 0,0 l/m 2,0 km/h (1 Bft) W-NW 301 0 min 0 W/m 11,0 C 17,4 C 4,8 km/h (1 Bft)
23.08.2017 01:20 17,5 C 17,5 C 65 % 1017,0 hPa 0,0 l/m 3,3 km/h (1 Bft) W-NW 300 0 min 0 W/m 10,8 C 17,5 C 6,4 km/h (2 Bft)
23.08.2017 01:15 17,5 C 17,4 C 65 % 1017,0 hPa 0,0 l/m 2,7 km/h (1 Bft) NW 319 0 min 0 W/m 10,8 C 17,5 C 6,4 km/h (2 Bft)
23.08.2017 01:10 17,5 C 17,5 C 66 % 1017,1 hPa 0,0 l/m 1,2 km/h (1 Bft) W-NW 293 0 min 0 W/m 11,1 C 17,5 C 4,8 km/h (1 Bft)
23.08.2017 01:05 17,5 C 17,5 C 66 % 1017,0 hPa 0,0 l/m 1,7 km/h (1 Bft) W-NW 299 0 min 0 W/m 11,1 C 17,5 C 4,8 km/h (1 Bft)
23.08.2017 01:00 17,6 C 17,6 C 66 % 1017,0 hPa 0,0 l/m 1,5 km/h (1 Bft) W-NW 296 0 min 0 W/m 11,2 C 17,6 C 3,2 km/h (1 Bft)
23.08.2017 00:55 17,6 C 17,6 C 65 % 1017,0 hPa 0,0 l/m 2,2 km/h (1 Bft) NW 304 0 min 0 W/m 10,9 C 17,6 C 4,8 km/h (1 Bft)
23.08.2017 00:50 17,7 C 17,6 C 66 % 1017,0 hPa 0,0 l/m 1,9 km/h (1 Bft) W 280 0 min 0 W/m 11,3 C 17,7 C 4,8 km/h (1 Bft)
23.08.2017 00:45 17,7 C 17,7 C 65 % 1017,0 hPa 0,0 l/m 2,2 km/h (1 Bft) W 271 0 min 0 W/m 11,0 C 17,7 C 4,8 km/h (1 Bft)
23.08.2017 00:40 17,7 C 17,7 C 65 % 1017,0 hPa 0,0 l/m 3,4 km/h (1 Bft) W-NW 293 0 min 0 W/m 11,0 C 17,7 C 6,4 km/h (2 Bft)
23.08.2017 00:35 17,8 C 17,8 C 65 % 1017,0 hPa 0,0 l/m 2,3 km/h (1 Bft) W-NW 283 0 min 0 W/m 11,1 C 17,8 C 4,8 km/h (1 Bft)
23.08.2017 00:30 17,8 C 17,8 C 65 % 1017,0 hPa 0,0 l/m 1,9 km/h (1 Bft) W-NW 294 0 min 0 W/m 11,1 C 17,8 C 4,8 km/h (1 Bft)
23.08.2017 00:25 17,9 C 17,9 C 65 % 1017,0 hPa 0,0 l/m 1,1 km/h (1 Bft) W-NW 282 0 min 0 W/m 11,2 C 17,9 C 3,2 km/h (1 Bft)
23.08.2017 00:20 17,9 C 17,9 C 65 % 1017,1 hPa 0,0 l/m 3,3 km/h (1 Bft) W-NW 290 0 min 0 W/m 11,2 C 17,9 C 6,4 km/h (2 Bft)
23.08.2017 00:15 17,9 C 17,9 C 65 % 1017,1 hPa 0,0 l/m 1,5 km/h (1 Bft) N-NW 333 0 min 0 W/m 11,2 C 17,9 C 4,8 km/h (1 Bft)
23.08.2017 00:10 17,9 C 17,8 C 66 % 1017,0 hPa 0,0 l/m 0,9 km/h (0 Bft) N-NW 336 0 min 0 W/m 11,5 C 17,9 C 4,8 km/h (1 Bft)
23.08.2017 00:05 17,8 C 17,8 C 66 % 1017,1 hPa 0,0 l/m 0,8 km/h (0 Bft) N-NW 327 0 min 0 W/m 11,4 C 17,8 C 4,8 km/h (1 Bft)
23.08.2017 00:00 17,8 C 17,8 C 66 % 1017,1 hPa 0,0 l/m 3,0 km/h (1 Bft) NW 306 0 min 0 W/m 11,4 C 17,8 C 6,4 km/h (2 Bft)
_ Min-Zeit 07:05 07:05 11:50 11:50 - 03:05 - - - - 03:45 07:05 04:40
Minimum _ 14,3 C 14,3 C 47 % 1015,7 hPa - 0,0 km/h (0 Bft) - - - - 10,7 C 14,3 C 0,0 km/h (0 Bft)
_ Max-Zeit 11:55 11:55 07:20 00:00 00:00 11:35 - - 00:00 00:00 11:20 11:55 11:50
Maximum _ 25,9 C 25,7 C 85 % 1017,1 hPa 0,0 l/m 5,6 km/h
S-SW (1 Bft)
- - 0 min 0 W/m 14,3 C 25,9 C 16,1 km/h
O-NO (3 Bft)
Durchschnitt _ 17,7 C 17,6 C 70 % 1016,3 hPa #0,0 l/m 1,7 km/h (1 Bft) W-NW - #0 min. 0 W/m 12,0 C 17,7 C 4,7 km/h (1 Bft)